Vancouver, WA
on Monday, December 3, 2012

Monday
Previous Day Next Day
Daily Summary
 ActualAverageRecord
Temperature
Mean Temperature °F / °C 42°F / 6°C  
Max Temperature 54°F / 12°C 48°F / 9°C 61°F / 16°C (1958)
Min Temperature 48°F / 9°C 36°F / 2°C 22°F / -5°C (1919)
Degree Days
Heating Degree Days 14    
Month to date heating degree days 44  
Since 1 July heating degree days 866  
Cooling Degree Days 0    
Month to date cooling degree days 0  
Year to date cooling degree days 398  
Growing Degree Days1 (Base °F / °C )  
Moisture
Dew Point 44°F / 7°C   
Average Humidity 76    
Maximum Humidity 86    
Minimum Humidity 66    
Precipitation
Precipitation 0.36 in / 9.14 cm 0.20 in / 5.08 cm 1.88 in / 4.78 cm (1980)
Month to date precipitation 1.34 0.61  
Year to date precipitation 39.66 32.98  
Snow
Snow 0.00 in / 0.00 cm in / cm in / cm ()
Since 1 July snowfall 0.0  
Snow Depth 0.00 in / 0.00 cm   
Wind
Wind Speed 7 mph / 11 km/h   
Max Wind Speed 15 mph / 24 km/h   
Max Gust Speed 22 mph / 35 km/h   
Visibility 9 miles / 15 kilometers   
Events Rain   

Key: T is trace of precipitation, MM is missing value
Source: NWS Daily Summary
Time(PST)TemperatureDew PointHumidity Pressure Visibility Wind DirectionWind SpeedGust SpeedPrecipitationEvents Conditions
12:53 AM 48.9°F / 9.4°C 44.1°F / 6.7°C 83% 29.94 in / 1013.8 hPa 10.0 miles / 16.1 kilometers South 4.6 mph / 7.4 km/h - 0.01 in / 0.3 cm Rain Light Rain
1:53 AM 48.9°F / 9.4°C 44.1°F / 6.7°C 83% 29.96 in / 1014.6 hPa 10.0 miles / 16.1 kilometers Variable 5.8 mph / 9.3 km/h - 0.01 in / 0.3 cm   Overcast
2:53 AM 48.9°F / 9.4°C 43.0°F / 6.1°C 80% 29.98 in / 1015.0 hPa 10.0 miles / 16.1 kilometers SSE 9.2 mph / 14.8 km/h - N/A   Overcast
3:15 AM 48.2°F / 9.0°C 44.6°F / 7.0°C 87% 29.98 in / 1015.1 hPa 8.0 miles / 12.9 kilometers South 5.8 mph / 9.3 km/h - 0.01 in / 0.3 cm Rain Light Rain
3:49 AM 48.2°F / 9.0°C 44.6°F / 7.0°C 87% 29.98 in / 1015.1 hPa 5.0 miles / 8.0 kilometers Variable 3.5 mph / 5.6 km/h - 0.06 in / 1.5 cm Rain Rain
3:53 AM 48.9°F / 9.4°C 44.1°F / 6.7°C 83% 29.99 in / 1015.4 hPa 4.0 miles / 6.4 kilometers South 4.6 mph / 7.4 km/h - 0.07 in / 1.8 cm Rain Rain
4:53 AM 48.9°F / 9.4°C 44.1°F / 6.7°C 83% 29.99 in / 1015.5 hPa 10.0 miles / 16.1 kilometers SSE 6.9 mph / 11.1 km/h - 0.03 in / 0.8 cm   Overcast
5:53 AM 48.9°F / 9.4°C 44.1°F / 6.7°C 83% 29.99 in / 1015.5 hPa 10.0 miles / 16.1 kilometers SSE 8.1 mph / 13.0 km/h - 0.02 in / 0.5 cm Rain Light Rain
7:41 AM 50.0°F / 10.0°C 44.6°F / 7.0°C 82% 30.01 in / 1016.1 hPa 10.0 miles / 16.1 kilometers South 10.4 mph / 16.7 km/h 17.3 mph / 27.8 km/h 0.02 in / 0.5 cm Rain Light Rain
7:53 AM 50.0°F / 10.0°C 44.1°F / 6.7°C 80% 30.02 in / 1016.4 hPa 10.0 miles / 16.1 kilometers Variable 6.9 mph / 11.1 km/h 16.1 mph / 25.9 km/h 0.02 in / 0.5 cm Rain Light Rain
8:53 AM 50.0°F / 10.0°C 45.0°F / 7.2°C 83% 30.03 in / 1016.8 hPa 10.0 miles / 16.1 kilometers South 9.2 mph / 14.8 km/h - 0.00 in / 0.0 cm Rain Light Rain
9:53 AM 48.9°F / 9.4°C 45.0°F / 7.2°C 86% 30.04 in / 1017.3 hPa 8.0 miles / 12.9 kilometers South 8.1 mph / 13.0 km/h - 0.02 in / 0.5 cm Rain Light Rain
10:53 AM 52.0°F / 11.1°C 45.0°F / 7.2°C 77% 30.05 in / 1017.5 hPa 10.0 miles / 16.1 kilometers South 6.9 mph / 11.1 km/h 16.1 mph / 25.9 km/h 0.00 in / 0.0 cm   Overcast
11:53 AM 53.1°F / 11.7°C 44.1°F / 6.7°C 71% 30.04 in / 1017.1 hPa 10.0 miles / 16.1 kilometers South 6.9 mph / 11.1 km/h 17.3 mph / 27.8 km/h 0.01 in / 0.3 cm   Overcast
12:53 PM 54.0°F / 12.2°C 43.0°F / 6.1°C 66% 30.03 in / 1016.8 hPa 10.0 miles / 16.1 kilometers South 8.1 mph / 13.0 km/h 16.1 mph / 25.9 km/h N/A   Overcast
1:53 PM 54.0°F / 12.2°C 43.0°F / 6.1°C 66% 30.01 in / 1016.3 hPa 10.0 miles / 16.1 kilometers South 6.9 mph / 11.1 km/h - N/A   Overcast
2:53 PM 53.1°F / 11.7°C 44.1°F / 6.7°C 71% 30.00 in / 1015.9 hPa 10.0 miles / 16.1 kilometers SE 6.9 mph / 11.1 km/h - 0.00 in / 0.0 cm   Overcast
3:53 PM 52.0°F / 11.1°C 45.0°F / 7.2°C 77% 30.00 in / 1015.7 hPa 10.0 miles / 16.1 kilometers SE 6.9 mph / 11.1 km/h - N/A   Overcast
4:53 PM 52.0°F / 11.1°C 45.0°F / 7.2°C 77% 29.97 in / 1014.7 hPa 10.0 miles / 16.1 kilometers ESE 5.8 mph / 9.3 km/h - N/A   Overcast
5:53 PM 51.1°F / 10.6°C 45.0°F / 7.2°C 80% 29.95 in / 1014.2 hPa 10.0 miles / 16.1 kilometers ESE 5.8 mph / 9.3 km/h - N/A   Overcast
6:53 PM 50.0°F / 10.0°C 45.0°F / 7.2°C 83% 29.91 in / 1012.9 hPa 10.0 miles / 16.1 kilometers ESE 10.4 mph / 16.7 km/h - N/A   Mostly Cloudy
7:53 PM 50.0°F / 10.0°C 44.1°F / 6.7°C 80% 29.86 in / 1011.2 hPa 10.0 miles / 16.1 kilometers ESE 10.4 mph / 16.7 km/h - N/A   Overcast
8:53 PM 50.0°F / 10.0°C 44.1°F / 6.7°C 80% 29.81 in / 1009.4 hPa 10.0 miles / 16.1 kilometers ESE 10.4 mph / 16.7 km/h - N/A   Overcast
9:53 PM 50.0°F / 10.0°C 44.1°F / 6.7°C 80% 29.76 in / 1007.8 hPa 10.0 miles / 16.1 kilometers ESE 8.1 mph / 13.0 km/h - N/A   Overcast
10:53 PM 50.0°F / 10.0°C 43.0°F / 6.1°C 77% 29.76 in / 1007.6 hPa 10.0 miles / 16.1 kilometers SE 4.6 mph / 7.4 km/h - 0.03 in / 0.8 cm Rain Light Rain
11:53 PM 48.0°F / 8.9°C 43.0°F / 6.1°C 83% 29.69 in / 1005.2 hPa 9.0 miles / 14.5 kilometers ESE 4.6 mph / 7.4 km/h - 0.09 in / 2.3 cm Rain Light Rain
Moon Phase
Dec. 03 Dec. 06 Dec. 13 Dec. 20 Dec. 28
Sunrise:07:33 AM (PST) Moon Rise:09:28 PM (PST)12/3
Sunset:04:27 PM (PST) Moon Set:10:52 AM (PST)12/3

Copyright © 2014 The Weather Underground, Inc.